Location: Cartignies
(50.0929°N, 3.8447°E)
Time: 14:05:50
(UTC+00:00)

USA 267 - Pass Details

Date: 12 January 2026
Orbit: 1101 x 1107 km, 123.0° (Epoch: 10 January)

Event Time Altitude Azimuth Distance (km) Brightness Sun altitude
Exits shadow 16:58:51 - 93° (E) 3,366 5.3 -8.2°
Reaches altitude 10° 16:59:55 10° 91° (E) 2,963 5.0 -8.3°
Maximum altitude 17:06:17 57° 15° (NNE) 1,284 3.5 -9.3°
Drops below altitude 10° 17:12:39 10° 299° (WNW) 2,964 6.1 -10.2°
Sets 17:15:10 0° 296° (WNW) 3,923 6.9 -10.6°
